[[{"header":{"parameterUnit":"m.s-1","parameterCategory":1,"la1":30.2991,"la2":30.254,"lo1":-89.0895,"lo2":-89.0444,"dy":0.0017,"dx":0.0017,"nx":28,"ny":28,"refTime":"2023-09-24T09:00:00:Z","depth":0,"parameterNumber":2,"parameterNumberName":"U-component_of_WINDS"},"data":[0,0,0,0,0,0,0,0,0,0,0,0,0,0,0,0,0,0,0,0,0,0,0,0,0,0,0,0,0,0,0,0,0,0,0,0,0,0,0,0,0,0,0,0,0,0,0,0,0,0,0,0,0,0,0,0,0,0,-2.287,-2.287,0,-2.2799,-2.2799,-2.2798,-2.2659,-2.2656,-2.2653,-2.2651,-2.258,-2.258,-2.2581,0,0,0,0,0,0,0,0,0,0,0,0,0,-2.289,-2.289,-2.2871,-2.287,-2.2869,-2.28,-2.2799,-2.2798,-2.2659,-2.2656,-2.2652,-2.2649,-2.2579,-2.258,-2.2581,0,0,0,0,0,0,0,0,0,0,0,0,0,-2.2856,-2.289,-2.2871,-2.2791,-2.2783,-2.28,-2.2799,-2.2797,-2.266,-2.2656,-2.2652,-2.2648,-2.2579,-2.258,-2.2581,-2.267,0,0,-2.2584,-2.2585,0,0,0,0,0,0,0,0,-2.2858,-2.2856,-2.2804,-2.2797,-2.2788,-2.2734,-2.2779,-2.2755,-2.2661,-2.2707,-2.265,-2.2646,-2.2634,-2.2631,-2.2626,-2.2666,-2.2663,-2.2584,-2.2585,-2.2585,-2.2586,0,0,0,0,0,0,0,-2.2861,-2.2858,-2.2842,-2.2803,-2.2794,-2.276,-2.2751,-2.2774,-2.2695,-2.2702,-2.2692,-2.2686,-2.2629,-2.2626,-2.2624,-2.2662,-2.2584,-2.2585,-2.2586,-2.2586,-2.2774,-2.2778,0,0,0,0,0,0,-2.2874,-2.2861,-2.2845,-2.284,-2.2814,-2.2763,-2.2753,-2.2755,-2.2694,-2.2681,-2.2689,-2.2679,-2.2626,-2.2623,-2.2621,-2.2722,-2.2585,-2.2586,-2.2587,-2.277,-2.2775,-2.278,0,0,0,0,0,0,-2.2875,-2.2874,-2.2847,-2.2848,-2.2842,-2.2767,-2.2771,-2.2756,-2.2752,-2.2684,-2.2669,-2.27,-2.2623,-2.2619,-2.2659,-2.2717,-2.2587,-2.2588,-2.2765,-2.2771,-2.2778,-2.2924,0,0,0,0,0,0,-2.2876,-2.2875,-2.2907,-2.285,-2.2842,-2.2887,-2.2775,-2.2758,-2.2754,-2.2741,-2.269,-2.2678,-2.2619,-2.2658,-2.266,-2.2716,-2.2588,-2.2759,-2.2768,-2.2775,-2.2914,-2.2935,-2.2953,0,0,0,0,0,-2.2878,-2.2951,-2.291,-2.2908,-2.2881,-2.289,-2.2886,-2.2816,-2.2759,-2.2792,-2.2748,-2.2679,-2.2711,-2.2664,-2.2664,-2.2722,-2.2755,-2.2765,-2.2775,-2.2905,-2.2931,-2.2952,0,0,0,0,0,0,-2.3018,-2.2942,-2.2895,-2.2952,-2.2929,-2.2866,-2.2905,-2.2846,-2.2838,-2.2826,-2.2741,-2.2731,-2.2782,-2.2756,-2.2704,-2.2806,-2.2722,-2.2733,-2.2821,-2.2845,-2.2864,-2.2869,-2.2589,0,0,0,0,0,-2.3055,-2.3069,-2.3002,-2.3059,-2.3049,-2.298,-2.2981,-2.293,-2.2902,-2.2892,-2.2851,-2.2828,-2.2832,-2.2837,-2.2837,-2.2909,-2.2897,-2.295,-2.2969,-2.2986,-2.2996,-2.3034,-2.3057,-2.2812,-2.2812,-2.2812,0,0,-2.3133,-2.3093,-2.3107,-2.3086,-2.3062,-2.3079,-2.2972,-2.2994,-2.3006,-2.2895,-2.293,-2.29,-2.2869,-2.2926,-2.2949,-2.2905,-2.3061,-2.2998,-2.3012,-2.3013,-2.3047,-2.307,-2.3091,-2.2819,-2.2818,-2.2817,0,0,-2.3283,-2.3254,-2.3299,-2.3277,-2.3242,-2.3195,-2.3207,-2.3154,-2.313,-2.3164,-2.3082,-2.3096,-2.3105,-2.3086,-2.3078,-2.3225,-2.3162,-2.3227,-2.333,-2.3368,-2.3388,-2.3404,-2.3458,-2.3478,-2.3238,-2.3238,-2.3238,0,-2.3384,-2.3405,-2.3329,-2.3357,-2.3351,-2.3252,-2.3298,-2.3281,-2.3248,-2.3247,-2.3199,-2.321,-2.3182,-2.3234,-2.327,-2.3266,-2.3278,-2.3232,-2.3391,-2.3407,-2.3421,-2.3472,-2.3492,-2.3246,-2.3245,-2.3245,-2.3244,0,-2.3532,-2.3548,-2.3589,-2.356,-2.3559,-2.3596,-2.3527,-2.3535,-2.3485,-2.3445,-2.3482,-2.3445,-2.3437,-2.3446,-2.3396,-2.3492,-2.3466,-2.3406,-2.3321,-2.3454,-2.35,-2.3519,-2.3258,-2.3255,-2.3253,-2.3251,0,0,-2.3767,-2.3697,-2.3713,-2.37,-2.3655,-2.3667,-2.3701,-2.3693,-2.3702,-2.3684,-2.3711,-2.3722,-2.3667,-2.3658,-2.3606,-2.364,-2.3761,-2.3575,-2.3573,-2.3612,-2.3866,-2.3913,-2.3936,-2.3719,-2.3722,-2.3725,-2.3869,0,-2.3907,-2.3959,-2.3893,-2.396,-2.3976,-2.3883,-2.3913,-2.389,-2.3853,-2.3862,-2.3822,-2.3832,-2.3757,-2.3751,-2.3781,-2.374,-2.3811,-2.3729,-2.3745,-2.3746,-2.3756,-2.396,-2.4008,-2.4146,-2.3887,-2.389,-2.3892,0,-2.4077,-2.4068,-2.4137,-2.409,-2.4094,-2.4121,-2.411,-2.4119,-2.4092,-2.4063,-2.4055,-2.3993,-2.4025,-2.3942,-2.3985,-2.3931,-2.3934,-2.3916,-2.3919,-2.3918,-2.3827,-2.3965,-2.4188,-2.4209,-2.3919,-2.3917,-2.3915,0,-2.4244,-2.4248,-2.429,-2.4281,-2.4227,-2.4249,-2.4228,-2.4196,-2.4197,-2.4187,-2.4187,-2.4182,-2.418,-2.4178,-2.4118,-2.4063,-2.4169,-2.4081,-2.4148,-2.415,-2.4174,-2.4174,-2.4401,-2.4176,-2.4175,-2.4175,-2.4175,0,-2.4408,-2.4454,-2.4364,-2.439,-2.444,-2.4365,-2.4416,-2.4386,-2.4359,-2.4379,-2.4299,-2.4319,-2.4238,-2.4251,-2.4204,-2.4248,-2.4247,-2.4226,-2.4213,-2.4233,-2.4237,-2.4234,-2.4224,-2.418,-2.4179,-2.4178,-2.4177,0,-2.4601,-2.4542,-2.4583,-2.4529,-2.4517,-2.4556,-2.451,-2.4533,-2.4492,-2.4519,-2.4521,-2.4457,-2.4468,-2.4408,-2.4408,-2.4376,-2.4444,-2.4414,-2.4453,-2.4444,-2.4515,-2.451,-2.475,-2.4778,-2.4534,-2.4537,-2.4539,0,-2.471,-2.4743,-2.4694,-2.4701,-2.4684,-2.4696,-2.4697,-2.4625,-2.4629,-2.4602,-2.4629,-2.4633,-2.4633,-2.4655,-2.461,-2.461,-2.458,-2.4664,-2.458,-2.46,-2.4583,-2.4582,-2.4586,-2.4682,-2.4685,-2.4688,-2.469,0,-2.491,-2.488,-2.4882,-2.4877,-2.488,-2.4872,-2.4858,-2.4869,-2.4792,-2.4801,-2.4811,-2.4811,-2.4811,-2.4818,-2.4809,-2.4788,-2.4728,-2.4717,-2.4733,-2.4754,-2.4776,-2.4767,-2.4502,-2.4712,-2.471,-2.4708,-2.4707,-2.4706,-2.5064,-2.5091,-2.506,-2.5067,-2.505,-2.504,-2.506,-2.5022,-2.5029,-2.5024,-2.4981,-2.5,-2.4975,-2.4957,-2.4943,-2.4957,-2.4917,-2.494,-2.4945,-2.4952,-2.4966,-2.4774,-2.4955,-2.4955,-2.4954,-2.4953,-2.4953,0,-2.5261,-2.5238,-2.5245,-2.5229,-2.5236,-2.5177,-2.516,-2.517,-2.5187,-2.5168,-2.517,-2.5183,-2.5189,-2.5146,-2.5146,-2.5167,-2.5139,-2.5169,-2.5168,-2.5164,-2.5,-2.4987,-2.5192,-2.5192,-2.5192,-2.5192,-2.5192,-2.5192,-2.5364,-2.5406,-2.5373,-2.5407,-2.5383,-2.54,-2.5396,-2.5388,-2.5372,-2.539,-2.5395,-2.5366,-2.5338,-2.5337,-2.5341,-2.5328,-2.5332,-2.5373,-2.5351,-2.5199,-2.5175,-2.5153,-2.5141,-2.5374,-2.5374,-2.5513,-2.5515,-2.5516]},{"header":{"parameterUnit":"m.s-1","parameterCategory":1,"la1":30.2991,"la2":30.254,"lo1":-89.0895,"lo2":-89.0444,"dy":0.0017,"dx":0.0017,"nx":28,"ny":28,"refTime":"2023-09-24T09:00:00:Z","depth":0,"parameterNumber":3,"parameterNumberName":"V-component_of_WINDS"},"data":[0,0,0,0,0,0,0,0,0,0,0,0,0,0,0,0,0,0,0,0,0,0,0,0,0,0,0,0,0,0,0,0,0,0,0,0,0,0,0,0,0,0,0,0,0,0,0,0,0,0,0,0,0,0,0,0,0,0,1.3547,1.355,0,1.3823,1.3826,1.383,1.3952,1.3951,1.3951,1.3951,1.4236,1.4244,1.4252,0,0,0,0,0,0,0,0,0,0,0,0,0,1.3125,1.3132,1.3547,1.355,1.3554,1.3823,1.3827,1.383,1.3952,1.3951,1.3951,1.395,1.4234,1.4243,1.4253,0,0,0,0,0,0,0,0,0,0,0,0,0,1.3345,1.3134,1.3546,1.3647,1.3658,1.3822,1.3827,1.3831,1.3952,1.3951,1.3951,1.395,1.4231,1.4242,1.4254,1.4339,0,0,1.429,1.4296,0,0,0,0,0,0,0,0,1.3332,1.3361,1.3628,1.364,1.3653,1.3852,1.3783,1.4002,1.3952,1.384,1.3951,1.395,1.4109,1.4131,1.4184,1.4352,1.4365,1.4291,1.4299,1.4304,1.4307,0,0,0,0,0,0,0,1.3317,1.3349,1.3656,1.3632,1.3647,1.3678,1.3709,1.3825,1.3975,1.385,1.386,1.3891,1.4116,1.4172,1.4192,1.4369,1.4291,1.4302,1.4309,1.4314,1.4619,1.462,0,0,0,0,0,0,1.3285,1.3336,1.3647,1.3664,1.3488,1.3686,1.372,1.3789,1.3974,1.4001,1.3891,1.3895,1.4152,1.4178,1.4202,1.4314,1.4304,1.4315,1.4322,1.4618,1.462,1.4621,0,0,0,0,0,0,1.3276,1.3312,1.3636,1.3503,1.3546,1.3694,1.377,1.3795,1.3852,1.4005,1.4032,1.3921,1.4153,1.4186,1.4304,1.4325,1.432,1.4331,1.4617,1.4619,1.462,1.4537,0,0,0,0,0,0,1.3263,1.3308,1.3341,1.3503,1.3553,1.3732,1.3771,1.3801,1.3871,1.388,1.404,1.4066,1.4155,1.4285,1.4315,1.4342,1.4341,1.4616,1.4618,1.462,1.4538,1.4535,1.4532,0,0,0,0,0,1.3247,1.3308,1.3343,1.338,1.3598,1.3733,1.3762,1.3863,1.3873,1.3908,1.4006,1.4061,1.4317,1.4296,1.4331,1.4361,1.4615,1.4617,1.462,1.4539,1.4536,1.4532,0,0,0,0,0,0,1.3147,1.3331,1.3372,1.3486,1.3593,1.3754,1.3802,1.3856,1.3963,1.3967,1.4087,1.4122,1.423,1.4308,1.428,1.4453,1.4471,1.448,1.4398,1.4396,1.4393,1.4372,1.435,0,0,0,0,0,1.3138,1.3231,1.3387,1.3473,1.3525,1.3653,1.3716,1.3783,1.39,1.3946,1.4053,1.4164,1.427,1.4337,1.4443,1.4549,1.4586,1.4587,1.4584,1.4581,1.4588,1.4649,1.4652,1.4628,1.4628,1.4628,0,0,1.3121,1.3232,1.3285,1.3456,1.3547,1.3641,1.3691,1.3789,1.3861,1.3962,1.4079,1.4161,1.4293,1.4405,1.446,1.4473,1.4602,1.4584,1.458,1.4589,1.4652,1.4654,1.4656,1.4629,1.4629,1.4629,0,0,1.3137,1.3231,1.3313,1.3402,1.3538,1.3623,1.3642,1.3795,1.3852,1.3972,1.4049,1.4136,1.4316,1.4406,1.4476,1.4523,1.4578,1.4554,1.4539,1.4598,1.46,1.4602,1.4619,1.4623,1.456,1.456,1.456,0,1.3099,1.3244,1.3348,1.3441,1.3514,1.3607,1.369,1.3772,1.3936,1.3985,1.3997,1.4223,1.4319,1.4453,1.4464,1.4517,1.4543,1.4537,1.4591,1.4594,1.4598,1.4615,1.4621,1.4556,1.4557,1.4557,1.4557,0,1.3189,1.3288,1.3338,1.3492,1.357,1.3658,1.3775,1.3841,1.3901,1.3984,1.4104,1.4222,1.4352,1.4389,1.4449,1.4531,1.4535,1.4567,1.4589,1.4594,1.4613,1.462,1.4551,1.4552,1.4553,1.4554,0,0,1.3153,1.3361,1.3378,1.3448,1.3604,1.3683,1.3774,1.3901,1.3955,1.4064,1.4144,1.4292,1.4323,1.4401,1.4472,1.4523,1.4552,1.455,1.4554,1.4546,1.465,1.4625,1.4631,1.4589,1.4591,1.4592,1.4639,0,1.3191,1.3358,1.3453,1.3581,1.3673,1.3762,1.3842,1.3946,1.4025,1.4116,1.4204,1.4307,1.4339,1.4387,1.4441,1.4537,1.4575,1.4535,1.4665,1.4668,1.4629,1.4641,1.4616,1.4654,1.4646,1.4648,1.4649,0,1.3259,1.3364,1.35,1.3644,1.3687,1.3756,1.3879,1.3964,1.4083,1.4138,1.4223,1.4294,1.4394,1.4405,1.4544,1.4515,1.4573,1.4628,1.4632,1.4649,1.4659,1.4658,1.4669,1.4674,1.4661,1.466,1.4659,0,1.3217,1.3394,1.3498,1.3556,1.3726,1.3773,1.3846,1.3965,1.4034,1.4141,1.4188,1.4305,1.4369,1.4459,1.4559,1.4558,1.4687,1.4708,1.4736,1.4733,1.476,1.4757,1.4781,1.4796,1.4796,1.4796,1.4796,0,1.325,1.333,1.3482,1.3546,1.3638,1.3746,1.3834,1.3914,1.4019,1.41,1.4184,1.4259,1.4386,1.4477,1.4556,1.4658,1.4687,1.4734,1.4754,1.4727,1.4721,1.4768,1.4768,1.4798,1.4797,1.4797,1.4797,0,1.3221,1.3326,1.3445,1.3595,1.3635,1.3696,1.3825,1.3891,1.3974,1.4075,1.4106,1.4236,1.4347,1.4455,1.4604,1.4657,1.4759,1.4785,1.4718,1.4729,1.4751,1.4748,1.4806,1.482,1.4824,1.4824,1.4824,0,1.3235,1.3299,1.3455,1.3515,1.3586,1.3681,1.3752,1.386,1.393,1.4069,1.4118,1.4234,1.4334,1.4506,1.4615,1.4729,1.4759,1.4771,1.4777,1.4747,1.476,1.4755,1.4762,1.4769,1.4768,1.4768,1.4767,0,1.3249,1.3297,1.3395,1.3511,1.3592,1.3688,1.3788,1.3832,1.3959,1.4034,1.4147,1.4223,1.4374,1.4489,1.4615,1.4692,1.4751,1.4764,1.4777,1.475,1.4709,1.4732,1.471,1.4763,1.4763,1.4764,1.4764,1.4764,1.3243,1.3303,1.3422,1.3528,1.3613,1.3703,1.3772,1.3862,1.3958,1.4089,1.4147,1.4261,1.4378,1.4553,1.4628,1.4719,1.4734,1.4752,1.4757,1.476,1.4754,1.4693,1.4743,1.4743,1.4743,1.4743,1.4743,0,1.3262,1.3342,1.3438,1.3573,1.3656,1.3703,1.3815,1.3881,1.398,1.4083,1.4178,1.4308,1.4419,1.4535,1.4653,1.4703,1.4733,1.473,1.4728,1.4745,1.4734,1.4711,1.4704,1.4704,1.4704,1.4704,1.4704,1.4704,1.3281,1.3384,1.3446,1.3592,1.3673,1.3784,1.3844,1.3928,1.4011,1.4151,1.4243,1.4317,1.4426,1.4552,1.4656,1.4687,1.4727,1.4717,1.4755,1.4743,1.4746,1.4748,1.4728,1.4724,1.4724,1.476,1.476,1.476]}]]